EST,Max TemperatureF,Mean TemperatureF,Min TemperatureF,Max Dew PointF,MeanDew PointF,Min DewpointF,Max Humidity, Mean Humidity, Min Humidity, Max Sea Level PressureIn, Mean Sea Level PressureIn, Min Sea Level PressureIn, Max VisibilityMiles, Mean VisibilityMiles, Min VisibilityMiles, Max Wind SpeedMPH, Mean Wind SpeedMPH, Max Gust SpeedMPH,PrecipitationIn, CloudCover, Events, WindDirDegrees
2013-2-1,69,54,39,46,36,29,78,53,24,30.38,30.31,30.25,10,10,10,12,7,,0.00,1,,19
2013-2-2,72,56,40,50,43,34,91,65,27,30.32,30.25,30.18,10,10,10,12,7,,0.00,0,,26
2013-2-3,70,54,39,58,49,37,98,80,56,30.22,30.17,30.12,10,10,10,12,5,17,0.00,0,,1
2013-2-4,71,56,41,53,43,37,98,67,30,30.16,30.11,30.06,10,10,4,9,3,,0.00,0,,40
2013-2-5,76,60,45,57,51,42,91,65,42,30.12,30.07,30.03,10,9,3,13,5,,0.00,1,,305
2013-2-6,79,68,57,63,59,55,96,77,50,30.13,30.08,30.05,10,10,10,8,5,,0.00,5,,161
2013-2-7,78,70,62,68,66,62,100,92,64,30.08,29.98,29.89,10,10,10,25,11,33,0.14,1,Rain-Thunderstorm,239
2013-2-8,76,68,59,68,64,59,100,93,66,30.11,30.01,29.92,10,10,10,13,8,20,0.00,3,,344
2013-2-9,78,66,53,58,55,52,100,76,41,30.21,30.15,30.09,10,10,10,14,6,,0.00,0,,73
2013-2-10,80,70,60,64,61,57,94,77,51,30.26,30.20,30.15,10,10,10,17,12,21,0.00,3,,131
2013-2-11,82,72,62,70,66,63,100,91,58,30.22,30.15,30.11,10,8,1,18,9,21,0.00,0,,248
2013-2-12,80,72,64,75,68,64,100,98,74,30.12,30.07,29.98,10,6,0,21,6,,0.00,3,Fog,251
2013-2-13,80,71,62,73,69,57,100,96,77,30.02,29.95,29.88,10,10,6,25,11,34,0.06,5,Rain,286
2013-2-14,62,60,59,63,60,57,100,98,88,30.06,30.02,29.94,10,9,2,13,5,20,0.73,8,Rain,41
2013-2-15,68,62,55,66,58,46,100,97,46,30.10,30.04,29.99,10,9,6,9,4,,0.08,7,Rain,28
2013-2-16,68,59,50,55,48,36,94,71,47,30.16,30.02,29.97,10,10,10,20,10,31,0.01,3,Rain,347
2013-2-17,53,45,37,32,24,18,70,43,28,30.37,30.30,30.18,10,10,10,13,10,20,0.00,0,,23
2013-2-18,69,50,32,50,38,27,93,66,35,30.38,30.32,30.23,10,9,2,14,8,17,0.00,1,,98
2013-2-19,77,64,50,64,58,50,100,89,61,30.23,30.15,30.11,10,7,0,16,7,,0.00,0,Fog,238
2013-2-20,78,68,57,66,62,55,100,94,63,30.15,30.11,30.04,10,6,0,13,4,,0.00,4,Fog,12
2013-2-21,82,70,57,68,63,55,100,87,62,30.13,30.07,30.02,10,10,6,12,6,,0.01,0,,107
2013-2-22,82,71,60,72,67,61,100,92,70,30.09,30.05,30.02,10,9,1,18,7,18,0.00,0,,246
2013-2-23,80,74,68,73,70,68,100,98,79,30.02,29.97,29.93,10,6,0,22,10,25,0.00,6,Fog,270
2013-2-24,78,72,66,72,68,66,100,99,79,29.98,29.94,29.89,10,4,0,13,8,,0.00,3,Fog,275
2013-2-25,80,73,66,73,69,66,100,97,76,29.92,29.87,29.80,10,8,1,16,7,,0.01,4,,209
2013-2-26,75,70,66,74,70,64,100,97,73,29.91,29.82,29.73,10,9,1,26,13,32,0.23,4,Rain,257
2013-2-27,73,66,59,63,60,55,94,80,57,30.00,29.96,29.90,10,10,10,12,7,,0.00,2,,352
2013-2-28,75,67,59,57,54,50,85,69,47,30.03,29.98,29.94,10,10,10,16,8,22,0.00,1,,326